Overview Statistics Trail Chart Weather Telemetry Raw packets
 

This is the latest recevied weather packets stored in our database for station/object N9BLE. If no packets are shown the sender has not sent any weather packets the latest 10 day(s).

<< 103 104 105 106 107 108 109 >>
Time Temp. Humidity Pressure Rain* Wind** Luminosity Snow
1777229044 16.11° C 67% 1020.5 hPa 0 mm - 745 W/m² -
1777228740 16.67° C 67% 1020.7 hPa 0 mm - 734 W/m² -
1777228436 16.11° C 69% 1020.5 hPa 0 mm - 760 W/m² -
1777228132 15.56° C 71% 1020.5 hPa 0 mm - 753 W/m² -
1777227831 15.56° C 70% 1020.8 hPa 0 mm - 752 W/m² -
1777227529 16.11° C 70% 1020.8 hPa 0 mm - 748 W/m² -
1777227224 16.11° C 69% 1021 hPa 0 mm - 755 W/m² -
1777226921 15.56° C 70% 1020.8 hPa 0 mm - 739 W/m² -
1777226619 15.56° C 70% 1021 hPa 0 mm - 748 W/m² -
1777226315 15.56° C 70% 1021.1 hPa 0 mm - 765 W/m² -
1777226011 15.56° C 72% 1021.2 hPa 0 mm - 758 W/m² -
1777225707 15.56° C 72% 1021.2 hPa 0 mm - 769 W/m² -
1777225405 14.44° C 73% 1021.5 hPa 0 mm - 767 W/m² -
1777225102 15° C 73% 1021.6 hPa 0 mm - 765 W/m² -
1777224798 14.44° C 72% 1021.7 hPa 0 mm - 754 W/m² -
1777224494 14.44° C 73% 1021.6 hPa 0 mm - 685 W/m² -
1777224190 13.89° C 75% 1021.7 hPa 0 mm - 628 W/m² -
1777223886 14.44° C 75% 1021.8 hPa 0 mm - 325 W/m² -
1777223583 13.89° C 77% 1022 hPa 0 mm - 288 W/m² -
1777223280 13.89° C 77% 1021.9 hPa 0 mm - 236 W/m² -
1777222977 13.89° C 78% 1021.9 hPa 0 mm - 299 W/m² -
1777222674 13.33° C 78% 1021.8 hPa 0 mm - 245 W/m² -
1777222371 13.33° C 78% 1021.9 hPa 0 mm - 202 W/m² -
1777222070 12.78° C 79% 1021.9 hPa 0 mm - 138 W/m² -
1777221765 12.78° C 80% 1021.8 hPa 0 mm - 144 W/m² -

* Rain latest hour (hover to see other rain measurements)
** Current wind speed in m/s (hover to see current wind gust speed)